TimeCDT,TemperatureF,Dew PointF,Humidity,Sea Level PressureIn,VisibilityMPH,Wind Direction,Wind SpeedMPH,Gust SpeedMPH,PrecipitationIn,Events,Conditions,WindDirDegrees,DateUTC
12:53 AM,36.0,21.0,55,30.11,10.0,West,6.9,-,N/A,,Clear,260,2011-10-29 05:53:00
1:53 AM,34.0,21.0,59,30.10,10.0,West,8.1,-,N/A,,Clear,260,2011-10-29 06:53:00
2:53 AM,34.0,21.9,61,30.10,10.0,West,8.1,-,N/A,,Clear,270,2011-10-29 07:53:00
3:53 AM,30.0,21.0,69,30.10,10.0,West,6.9,-,N/A,,Clear,270,2011-10-29 08:53:00
4:53 AM,30.2,21.2,69,30.09,10.0,West,6.9,-,N/A,,Clear,280,2011-10-29 09:53:00
5:53 AM,28.9,21.0,72,30.11,10.0,West,6.9,-,N/A,,Clear,270,2011-10-29 10:53:00
6:53 AM,28.9,21.0,72,30.13,10.0,West,8.1,-,N/A,,Clear,270,2011-10-29 11:53:00
7:53 AM,28.0,19.9,72,30.14,10.0,WSW,3.5,-,N/A,,Clear,240,2011-10-29 12:53:00
8:53 AM,36.0,24.1,62,30.16,10.0,WNW,4.6,-,N/A,,Clear,290,2011-10-29 13:53:00
9:53 AM,41.0,24.8,53,30.14,10.0,West,3.5,-,N/A,,Clear,270,2011-10-29 14:53:00
10:53 AM,46.9,27.0,46,30.15,10.0,SW,5.8,-,N/A,,Clear,220,2011-10-29 15:53:00
11:53 AM,52.0,26.1,37,30.14,10.0,Calm,Calm,-,N/A,,Partly Cloudy,0,2011-10-29 16:53:00
12:53 PM,55.0,21.9,28,30.11,7.0,Variable,3.5,-,N/A,,Clear,0,2011-10-29 17:53:00
1:53 PM,57.0,21.9,26,30.07,10.0,East,3.5,-,N/A,,Clear,90,2011-10-29 18:53:00
2:53 PM,57.9,21.0,24,30.04,10.0,Calm,Calm,-,N/A,,Clear,0,2011-10-29 19:53:00
3:53 PM,57.0,21.0,25,30.02,10.0,SE,3.5,-,N/A,,Clear,140,2011-10-29 20:53:00
4:53 PM,57.9,21.9,25,30.02,10.0,South,8.1,-,N/A,,Clear,170,2011-10-29 21:53:00
5:53 PM,53.6,24.8,33,29.99,10.0,SE,6.9,-,N/A,,Clear,140,2011-10-29 22:53:00
6:53 PM,48.0,21.9,36,30.01,10.0,ESE,9.2,-,N/A,,Clear,120,2011-10-29 23:53:00
7:53 PM,48.9,23.0,36,30.00,10.0,SE,10.4,-,N/A,,Clear,130,2011-10-30 00:53:00
8:53 PM,48.9,23.0,36,29.99,10.0,ESE,9.2,-,N/A,,Clear,120,2011-10-30 01:53:00
9:53 PM,51.1,21.9,32,29.99,10.0,SE,13.8,-,N/A,,Clear,140,2011-10-30 02:53:00
10:53 PM,51.1,21.9,32,29.98,10.0,SE,13.8,-,N/A,,Clear,140,2011-10-30 03:53:00
11:53 PM,50.0,23.0,35,29.96,10.0,SSE,16.1,-,N/A,,Clear,160,2011-10-30 04:53:00